This is the latest recevied weather packets stored in our database for station/object KCCA. If no packets are shown the sender has not sent any weather packets the latest 10 day(s).
| Time | Temp. | Humidity | Pressure | Rain* | Wind** | Luminosity | Snow |
|---|---|---|---|---|---|---|---|
| 1777166002 | 20° C | 88% | 1010.2 hPa | - | - | - | - |
| 1777165408 | 20° C | 88% | 1010.2 hPa | - | - | - | - |
| 1777164807 | 20° C | 82% | 1009.5 hPa | - | - | - | - |
| 1777164204 | 20° C | 82% | 1009.5 hPa | - | - | - | - |
| 1777163604 | 20.56° C | 77% | 1008.5 hPa | - | - | - | - |
| 1777163006 | 20.56° C | 77% | 1008.5 hPa | - | - | - | - |
| 1777162411 | 21.67° C | 68% | 1008.8 hPa | - | - | - | - |
| 1777161803 | 21.67° C | 68% | 1008.8 hPa | - | - | - | - |
| 1777161203 | 22.78° C | 64% | 1008.8 hPa | - | - | - | - |
| 1777160609 | 22.78° C | 64% | 1008.8 hPa | - | - | - | - |
| 1777160007 | 22.78° C | 64% | 1008.8 hPa | - | - | - | - |
| 1777159409 | 22.78° C | 64% | 1008.8 hPa | - | - | - | - |
| 1777158809 | 22.78° C | 64% | 1009.1 hPa | - | - | - | - |
| 1777158209 | 22.78° C | 64% | 1009.1 hPa | - | - | - | - |
| 1777157609 | 23.89° C | 60% | 1009.5 hPa | - | - | - | - |
| 1777157007 | 23.89° C | 60% | 1009.5 hPa | - | - | - | - |
| 1777156410 | 23.89° C | 60% | 1009.5 hPa | - | - | - | - |
| 1777155807 | 23.89° C | 60% | 1009.5 hPa | - | - | - | - |
| 1777155207 | 22.78° C | 69% | 1009.8 hPa | - | - | - | - |
| 1777154606 | 22.78° C | 69% | 1009.8 hPa | - | - | - | - |
| 1777154007 | 22.78° C | 69% | 1009.8 hPa | - | - | - | - |
| 1777153405 | 22.78° C | 69% | 1009.8 hPa | - | - | - | - |
| 1777152809 | 22.78° C | 64% | 1010.2 hPa | - | - | - | - |
| 1777152208 | 22.78° C | 64% | 1010.2 hPa | - | - | - | - |
| 1777151605 | 22.78° C | 64% | 1010.2 hPa | - | - | - | - |
* Rain since midnight (hover to see other rain measurements)
** Current wind speed in m/s (hover to see current wind gust speed)